QTR1Q OTHH-EIDW

Flight info

Callsign QTR1Q
Flight time N/A
Altitude 32000
Route TULUB B457 BHR M444 DAVUS L602 TASMI/N0435F220 L602 ALPET/N0499F320 L718 DEBNI/N0496F340 DCT SEVKU L718 KABAN UL718 ULSAB UG8 GEM UT32 BUK UL602 MAKOL DCT ORTIP DCT MOPUG DCT GITAS DCT ARSIN DCT TAGAS DCT RENKA DCT INBED/N0479F360 DCT BOMBI DCT ADKUV DCT LENDO DCT SOGRI DCT DENUT L610 KOPUL DCT SABER DCT SIVDA DCT RODOL UL28 LELDO M145 BAGSO BAGSO3L
Aircraft B789/H-SDE1E2E3FGHIJ2J3J4J5M1RWXY/LB1D1

Departure

Time 2026-02-21 05:24
Airport Hamad International Airport (OTHH)

Arrival

Time N/A
Airport Dublin Airport (EIDW)
Time Latitude Longitude Altitude Speed Heading
2026-02-21 04:15 25.26594 51.61259 28 ft 0 kts 245°
2026-02-21 05:00 25.26598 51.61269 28 ft 3 kts 245°
2026-02-21 05:00 25.26606 51.61288 26 ft 3 kts 245°
2026-02-21 05:00 25.26614 51.61306 28 ft 3 kts 245°
2026-02-21 05:00 25.26623 51.61325 24 ft 3 kts 229°
2026-02-21 05:01 25.26639 51.61339 26 ft 3 kts 206°
2026-02-21 05:01 25.26657 51.61346 25 ft 3 kts 185°
2026-02-21 05:01 25.26676 51.61345 26 ft 3 kts 169°
2026-02-21 05:01 25.26693 51.61341 25 ft 3 kts 169°
2026-02-21 05:02 25.26711 51.61338 26 ft 3 kts 169°
2026-02-21 05:02 25.26729 51.61335 28 ft 3 kts 174°
2026-02-21 05:02 25.26740 51.61334 26 ft 0 kts 186°
2026-02-21 05:03 25.26743 51.61335 26 ft 3 kts 191°
2026-02-21 05:03 25.26757 51.61339 25 ft 0 kts 200°
2026-02-21 05:11 25.26756 51.61339 28 ft 0 kts 200°
2026-02-21 05:12 25.26753 51.61338 28 ft 1 kts 200°
2026-02-21 05:12 25.26753 51.61337 28 ft 0 kts 200°
2026-02-21 05:13 25.26752 51.61337 28 ft 1 kts 200°
2026-02-21 05:13 25.26734 51.61331 28 ft 4 kts 192°
2026-02-21 05:13 25.26695 51.61330 28 ft 7 kts 178°
2026-02-21 05:14 25.26659 51.61337 28 ft 9 kts 166°
2026-02-21 05:14 25.26596 51.61365 28 ft 11 kts 158°
2026-02-21 05:14 25.26515 51.61401 28 ft 13 kts 158°
2026-02-21 05:14 25.26411 51.61466 28 ft 11 kts 116°
2026-02-21 05:15 25.26408 51.61543 28 ft 8 kts 76°
2026-02-21 05:15 25.26426 51.61600 28 ft 8 kts 68°
2026-02-21 05:15 25.26448 51.61662 28 ft 9 kts 68°
2026-02-21 05:15 25.26473 51.61732 28 ft 10 kts 68°
2026-02-21 05:16 25.26488 51.61805 28 ft 8 kts 104°
2026-02-21 05:16 25.26472 51.61841 28 ft 8 kts 123°
2026-02-21 05:16 25.26435 51.61869 28 ft 5 kts 154°
2026-02-21 05:16 25.26398 51.61887 28 ft 6 kts 157°
2026-02-21 05:17 25.26369 51.61900 28 ft 7 kts 157°
2026-02-21 05:17 25.26319 51.61923 28 ft 8 kts 156°
2026-02-21 05:17 25.26263 51.61950 28 ft 9 kts 156°
2026-02-21 05:17 25.26224 51.61985 28 ft 6 kts 126°
2026-02-21 05:18 25.26216 51.62009 28 ft 2 kts 91°
2026-02-21 05:18 25.26216 51.62033 28 ft 4 kts 89°
2026-02-21 05:18 25.26215 51.62052 28 ft 3 kts 101°
2026-02-21 05:18 25.26198 51.62077 28 ft 3 kts 147°
2026-02-21 05:19 25.26181 51.62085 28 ft 4 kts 156°
2026-02-21 05:19 25.26145 51.62103 28 ft 7 kts 156°
2026-02-21 05:19 25.26097 51.62126 28 ft 9 kts 156°
2026-02-21 05:19 25.26036 51.62156 28 ft 10 kts 157°
2026-02-21 05:20 25.25983 51.62207 28 ft 11 kts 117°
2026-02-21 05:20 25.25958 51.62283 28 ft 10 kts 130°
2026-02-21 05:20 25.25895 51.62321 28 ft 11 kts 155°
2026-02-21 05:20 25.25819 51.62356 28 ft 13 kts 158°
2026-02-21 05:21 25.25731 51.62395 28 ft 15 kts 158°
2026-02-21 05:21 25.25630 51.62439 27 ft 17 kts 159°
2026-02-21 05:21 25.25528 51.62499 27 ft 16 kts 123°
2026-02-21 05:21 25.25517 51.62531 28 ft 1 kts 97°
2026-02-21 05:22 25.25515 51.62546 28 ft 3 kts 95°
2026-02-21 05:22 25.25518 51.62559 28 ft 1 kts 70°
2026-02-21 05:22 25.25532 51.62590 28 ft 9 kts 56°
2026-02-21 05:22 25.25582 51.62628 28 ft 9 kts 15°
2026-02-21 05:23 25.25635 51.62624 28 ft 8 kts 346°
2026-02-21 05:23 25.25697 51.62606 28 ft 11 kts 342°
2026-02-21 05:23 25.25774 51.62574 27 ft 13 kts 338°
2026-02-21 05:23 25.25888 51.62523 28 ft 37 kts 338°
2026-02-21 05:24 25.26366 51.62316 28 ft 108 kts 338°
2026-02-21 05:24 25.27257 51.61909 30 ft 167 kts 338°
2026-02-21 05:24 25.28445 51.61361 320 ft 195 kts 332°
2026-02-21 05:24 25.29735 51.60761 873 ft 213 kts 336°
2026-02-21 05:25 25.31185 51.60150 1174 ft 228 kts 341°
2026-02-21 05:25 25.32667 51.59550 1405 ft 224 kts 340°
2026-02-21 05:25 25.34096 51.58970 1962 ft 222 kts 340°
2026-02-21 05:25 25.35611 51.58422 2537 ft 230 kts 354°
2026-02-21 05:26 25.37195 51.58620 3147 ft 236 kts 14°
2026-02-21 05:26 25.38833 51.59120 3314 ft 251 kts 17°
2026-02-21 05:26 25.42223 51.60282 4063 ft 277 kts 18°
2026-02-21 05:27 25.44039 51.60904 4028 ft 268 kts 18°
2026-02-21 05:27 25.45802 51.61509 4025 ft 268 kts 18°
2026-02-21 05:27 25.47590 51.62123 4037 ft 266 kts 18°
2026-02-21 05:27 25.49296 51.62716 4596 ft 257 kts 20°
2026-02-21 05:28 25.50949 51.63627 5255 ft 270 kts 29°
2026-02-21 05:28 25.52615 51.64521 5873 ft 270 kts 22°
2026-02-21 05:28 25.54455 51.65130 6519 ft 275 kts 12°
2026-02-21 05:28 25.56340 51.65490 7114 ft 277 kts 10°
2026-02-21 05:29 25.58224 51.65783 7702 ft 278 kts 360°
2026-02-21 05:29 25.60130 51.65311 8352 ft 287 kts 346°
2026-02-21 05:29 25.62088 51.64886 9001 ft 283 kts 353°
2026-02-21 05:29 25.64022 51.64520 9638 ft 285 kts 350°
2026-02-21 05:30 25.65974 51.64040 10264 ft 286 kts 348°
2026-02-21 05:30 25.67923 51.63537 10847 ft 289 kts 349°
2026-02-21 05:30 25.69895 51.63062 11428 ft 292 kts 349°
2026-02-21 05:30 25.71895 51.62589 12044 ft 295 kts 349°
2026-02-21 05:31 25.73819 51.61858 12668 ft 298 kts 335°
2026-02-21 05:31 25.75749 51.60915 13314 ft 310 kts 339°
2026-02-21 05:31 25.77802 51.60007 13991 ft 327 kts 339°
2026-02-21 05:31 25.79959 51.59015 14604 ft 344 kts 337°
2026-02-21 05:32 25.82219 51.57936 15251 ft 360 kts 336°
2026-02-21 05:32 25.84395 51.56522 15909 ft 370 kts 318°
2026-02-21 05:32 25.86034 51.54293 16623 ft 379 kts 300°
2026-02-21 05:32 25.87318 51.51680 17312 ft 387 kts 297°
2026-02-21 05:33 25.88533 51.49044 17973 ft 390 kts 297°
2026-02-21 05:33 25.89833 51.46314 18163 ft 403 kts 298°
2026-02-21 05:33 25.91172 51.43614 18165 ft 400 kts 299°
2026-02-21 05:33 25.92492 51.40920 18145 ft 396 kts 298°
2026-02-21 05:34 25.93774 51.38237 18148 ft 393 kts 298°
2026-02-21 05:34 25.95059 51.35557 18147 ft 391 kts 298°
2026-02-21 05:34 25.96344 51.32910 18142 ft 390 kts 298°
2026-02-21 05:34 25.97621 51.30276 18144 ft 390 kts 298°
2026-02-21 05:35 25.98867 51.27628 18141 ft 390 kts 297°
2026-02-21 05:35 26.00082 51.24985 18531 ft 380 kts 297°
2026-02-21 05:35 26.01298 51.22376 19092 ft 387 kts 297°
2026-02-21 05:35 26.02575 51.19670 19680 ft 394 kts 297°
2026-02-21 05:36 26.03833 51.16987 20259 ft 396 kts 296°
2026-02-21 05:36 26.05107 51.14250 20867 ft 399 kts 296°
2026-02-21 05:36 26.06384 51.11511 21494 ft 401 kts 296°
2026-02-21 05:36 26.07671 51.08758 22121 ft 403 kts 296°
2026-02-21 05:37 26.08971 51.05975 22760 ft 406 kts 296°
2026-02-21 05:37 26.10248 51.03233 23395 ft 408 kts 295°
2026-02-21 05:37 26.11540 51.00380 24003 ft 410 kts 292°
2026-02-21 05:37 26.12705 50.97487 24562 ft 412 kts 293°
2026-02-21 05:38 26.13919 50.94585 25135 ft 413 kts 293°
2026-02-21 05:38 26.15122 50.91696 25697 ft 414 kts 292°
2026-02-21 05:38 26.16320 50.88760 26284 ft 416 kts 292°
2026-02-21 05:38 26.17514 50.85832 26881 ft 417 kts 292°
2026-02-21 05:39 26.18727 50.82884 27488 ft 420 kts 292°
2026-02-21 05:39 26.19930 50.79963 28102 ft 422 kts 292°
2026-02-21 05:39 26.21155 50.76973 28730 ft 424 kts 292°
2026-02-21 05:39 26.22378 50.73979 29390 ft 427 kts 291°
2026-02-21 05:40 26.23796 50.71062 30088 ft 433 kts 300°
2026-02-21 05:40 26.25629 50.68387 30686 ft 440 kts 308°
2026-02-21 05:40 26.27850 50.66025 31298 ft 448 kts 316°
2026-02-21 05:40 26.30461 50.64028 31911 ft 456 kts 325°
2026-02-21 05:41 26.33381 50.62491 32150 ft 475 kts 335°
2026-02-21 05:41 26.39667 50.59989 32164 ft 478 kts 334°
2026-02-21 05:42 26.45918 50.57661 32162 ft 475 kts 335°
2026-02-21 05:42 26.52174 50.55303 32165 ft 475 kts 335°
2026-02-21 05:43 26.58463 50.52980 32164 ft 475 kts 335°
2026-02-21 05:43 26.64712 50.50612 32171 ft 475 kts 335°
2026-02-21 05:44 26.70643 50.47615 32172 ft 463 kts 321°
2026-02-21 05:44 26.75461 50.43060 32149 ft 455 kts 312°
2026-02-21 05:45 26.80053 50.38228 32151 ft 454 kts 312°
2026-02-21 05:45 26.84596 50.33412 32153 ft 443 kts 311°
2026-02-21 05:46 26.89039 50.28701 32159 ft 437 kts 311°
2026-02-21 05:46 26.93433 50.24034 32161 ft 439 kts 311°
2026-02-21 05:47 26.97873 50.19319 32157 ft 438 kts 311°
2026-02-21 05:47 27.02222 50.14694 32155 ft 425 kts 311°
2026-02-21 05:48 27.06616 50.10401 32157 ft 415 kts 317°
2026-02-21 05:48 27.11130 50.06416 32157 ft 412 kts 316°
2026-02-21 05:49 27.15671 50.02445 32160 ft 419 kts 317°
2026-02-21 05:49 27.20253 49.98426 32164 ft 419 kts 316°
2026-02-21 05:50 27.24858 49.94380 32168 ft 419 kts 316°
2026-02-21 05:50 27.29443 49.90351 32175 ft 418 kts 316°
2026-02-21 05:51 27.34009 49.86324 32177 ft 418 kts 316°
2026-02-21 05:51 27.38551 49.82319 32173 ft 419 kts 316°
2026-02-21 05:52 27.43141 49.78264 32174 ft 419 kts 316°
2026-02-21 05:52 27.49995 49.72202 32177 ft 419 kts 317°
2026-02-21 05:53 27.54573 49.68149 32178 ft 419 kts 317°
2026-02-21 05:53 27.59154 49.64088 32177 ft 419 kts 317°
2026-02-21 05:54 27.63735 49.60022 32180 ft 418 kts 317°
2026-02-21 05:54 27.68305 49.55962 32180 ft 418 kts 316°
2026-02-21 05:55 27.72842 49.51926 32177 ft 418 kts 317°
2026-02-21 05:55 27.77399 49.47867 32179 ft 417 kts 317°
2026-02-21 05:56 27.81968 49.43794 32179 ft 417 kts 317°
2026-02-21 05:56 27.86512 49.39737 32184 ft 417 kts 317°
2026-02-21 05:57 27.91050 49.35682 32184 ft 416 kts 317°
2026-02-21 05:57 27.95724 49.31853 32196 ft 422 kts 326°
2026-02-21 05:58 28.00494 49.29468 32186 ft 427 kts 331°
2026-02-21 05:58 28.05941 49.26838 32187 ft 426 kts 331°
2026-02-21 05:59 28.11382 49.24253 32188 ft 426 kts 331°
2026-02-21 05:59 28.16750 49.21678 32179 ft 422 kts 331°
2026-02-21 06:00 28.22114 49.19113 32179 ft 419 kts 331°
2026-02-21 06:00 28.27477 49.16528 32165 ft 418 kts 330°
2026-02-21 06:01 28.32821 49.13922 32186 ft 419 kts 331°
2026-02-21 06:01 28.38174 49.11324 32185 ft 419 kts 330°
2026-02-21 06:02 28.43074 49.07972 32190 ft 412 kts 321°
2026-02-21 06:02 28.47818 49.04344 32177 ft 412 kts 321°
2026-02-21 06:03 28.52570 49.00697 32182 ft 411 kts 321°
2026-02-21 06:03 28.57289 48.97074 32180 ft 412 kts 321°
2026-02-21 06:04 28.62042 48.93421 32183 ft 412 kts 321°
2026-02-21 06:04 28.66793 48.89764 32184 ft 412 kts 321°
2026-02-21 06:05 28.71525 48.86119 32183 ft 411 kts 320°
2026-02-21 06:05 28.76219 48.82499 32188 ft 410 kts 320°
2026-02-21 06:06 28.80945 48.78850 32186 ft 409 kts 320°
2026-02-21 06:06 28.85659 48.75246 32186 ft 409 kts 321°
2026-02-21 06:07 28.90380 48.71627 32188 ft 409 kts 320°
2026-02-21 06:07 28.95074 48.68026 32185 ft 409 kts 320°
2026-02-21 06:08 28.99803 48.64395 32185 ft 409 kts 320°
2026-02-21 06:08 29.04522 48.60766 32190 ft 408 kts 320°
2026-02-21 06:09 29.09237 48.57136 32185 ft 408 kts 320°
2026-02-21 06:09 29.13915 48.53531 32183 ft 407 kts 320°
2026-02-21 06:10 29.18607 48.49911 32179 ft 407 kts 320°
2026-02-21 06:10 29.23301 48.46285 32195 ft 407 kts 320°
2026-02-21 06:11 29.27996 48.42655 32188 ft 407 kts 320°
2026-02-21 06:11 29.32650 48.39053 32186 ft 406 kts 320°
2026-02-21 06:12 29.37336 48.35421 32186 ft 406 kts 320°
2026-02-21 06:12 29.42007 48.31797 32184 ft 406 kts 320°
2026-02-21 06:13 29.46863 48.28451 32173 ft 411 kts 327°
2026-02-21 06:13 29.52027 48.25609 32195 ft 408 kts 321°
2026-02-21 06:14 29.56659 48.21978 32188 ft 405 kts 319°
2026-02-21 06:14 29.61592 48.18694 32191 ft 412 kts 326°
2026-02-21 06:15 29.66544 48.15476 32189 ft 408 kts 322°
2026-02-21 06:15 29.71427 48.12209 32188 ft 410 kts 324°
2026-02-21 06:16 29.76381 48.08966 32194 ft 408 kts 323°
2026-02-21 06:16 29.81284 48.05698 32193 ft 409 kts 323°
2026-02-21 06:17 29.86194 48.02460 32193 ft 408 kts 323°
2026-02-21 06:17 29.91124 47.99180 32194 ft 408 kts 323°
2026-02-21 06:18 29.96045 47.95917 32192 ft 408 kts 323°
2026-02-21 06:18 30.00896 47.92619 32194 ft 404 kts 317°
2026-02-21 06:19 30.04911 47.88227 32197 ft 393 kts 306°
2026-02-21 06:19 30.08487 47.83465 32196 ft 393 kts 306°
2026-02-21 06:20 30.12071 47.78684 32202 ft 395 kts 306°
2026-02-21 06:20 30.15635 47.73925 32202 ft 393 kts 306°
2026-02-21 06:21 30.19214 47.69138 32201 ft 392 kts 306°
2026-02-21 06:21 30.22772 47.64374 32202 ft 392 kts 306°
2026-02-21 06:22 30.26335 47.59600 32208 ft 392 kts 306°
2026-02-21 06:22 30.29886 47.54833 32207 ft 393 kts 306°
2026-02-21 06:23 30.33450 47.50045 32206 ft 392 kts 305°
2026-02-21 06:23 30.37026 47.45233 32209 ft 392 kts 305°
2026-02-21 06:24 30.40576 47.40452 32208 ft 392 kts 305°
2026-02-21 06:24 30.44111 47.35685 32213 ft 392 kts 305°
2026-02-21 06:25 30.47652 47.30904 32214 ft 391 kts 305°
2026-02-21 06:25 30.51196 47.26112 32217 ft 391 kts 305°
2026-02-21 06:26 30.54755 47.21295 32216 ft 391 kts 305°
2026-02-21 06:26 30.58275 47.16525 32209 ft 391 kts 305°
2026-02-21 06:27 30.61813 47.11728 32204 ft 391 kts 305°
2026-02-21 06:27 30.65344 47.06933 32211 ft 390 kts 305°
2026-02-21 06:28 30.68873 47.02135 32213 ft 391 kts 305°
2026-02-21 06:28 30.72408 46.97324 32216 ft 391 kts 305°
2026-02-21 06:29 30.75923 46.92533 32224 ft 390 kts 304°
2026-02-21 06:29 30.79452 46.87718 32221 ft 391 kts 304°
2026-02-21 06:30 30.82978 46.82901 32220 ft 390 kts 304°
2026-02-21 06:30 30.86487 46.78101 32231 ft 390 kts 304°
2026-02-21 06:31 30.89993 46.73300 32231 ft 389 kts 304°
2026-02-21 06:31 30.93498 46.68493 32225 ft 389 kts 304°
2026-02-21 06:32 30.96999 46.63686 32225 ft 389 kts 304°
2026-02-21 06:32 31.00397 46.59015 32226 ft 389 kts 304°
2026-02-21 06:33 31.03883 46.54217 32223 ft 388 kts 304°
2026-02-21 06:33 31.07374 46.49405 32227 ft 388 kts 304°
2026-02-21 06:34 31.10864 46.44590 32229 ft 389 kts 304°
2026-02-21 06:34 31.14354 46.39768 32229 ft 388 kts 304°
2026-02-21 06:35 31.17841 46.34945 32235 ft 388 kts 304°
2026-02-21 06:35 31.21467 46.30283 32237 ft 395 kts 312°
2026-02-21 06:36 31.25647 46.26093 32231 ft 396 kts 312°
2026-02-21 06:36 31.29829 46.21890 32240 ft 396 kts 312°
2026-02-21 06:37 31.34001 46.17700 32237 ft 396 kts 312°
2026-02-21 06:37 31.38169 46.13502 32242 ft 397 kts 312°
2026-02-21 06:38 31.42383 46.09257 32241 ft 397 kts 312°
2026-02-21 06:38 31.46531 46.05072 32248 ft 396 kts 312°
2026-02-21 06:39 31.50714 46.00845 32251 ft 397 kts 312°
2026-02-21 06:39 31.54896 45.96617 32248 ft 397 kts 311°
2026-02-21 06:40 31.59084 45.92374 32232 ft 397 kts 311°
2026-02-21 06:40 31.63260 45.88142 32240 ft 396 kts 311°
2026-02-21 06:41 31.67428 45.83910 32245 ft 396 kts 311°
2026-02-21 06:41 31.71598 45.79671 32248 ft 397 kts 311°
2026-02-21 06:42 31.75776 45.75420 32254 ft 397 kts 311°
2026-02-21 06:42 31.79941 45.71176 32255 ft 398 kts 311°
2026-02-21 06:43 31.84093 45.66941 32255 ft 397 kts 311°
2026-02-21 06:43 31.88264 45.62680 32259 ft 397 kts 311°
2026-02-21 06:44 31.92444 45.58405 32260 ft 397 kts 311°
2026-02-21 06:44 31.96600 45.54148 32260 ft 397 kts 311°
2026-02-21 06:45 32.00762 45.49881 32259 ft 397 kts 311°
2026-02-21 06:45 32.04949 45.45583 32262 ft 397 kts 311°
2026-02-21 06:46 32.09093 45.41324 32260 ft 397 kts 311°
2026-02-21 06:46 32.13248 45.37047 32265 ft 397 kts 311°
2026-02-21 06:47 32.17415 45.32754 32258 ft 397 kts 311°
2026-02-21 06:47 32.21575 45.28461 32262 ft 397 kts 311°
2026-02-21 06:48 32.25734 45.24165 32267 ft 397 kts 311°
2026-02-21 06:48 32.29892 45.19864 32266 ft 396 kts 311°
2026-02-21 06:49 32.34031 45.15576 32269 ft 396 kts 311°
2026-02-21 06:49 32.37473 45.12008 32271 ft 396 kts 311°
2026-02-21 06:50 32.41621 45.07702 32269 ft 396 kts 311°
2026-02-21 06:50 32.45756 45.03404 32272 ft 396 kts 311°
2026-02-21 06:51 32.50566 44.98397 32270 ft 396 kts 311°
2026-02-21 06:51 32.54024 44.94794 32274 ft 395 kts 311°
2026-02-21 06:52 32.58135 44.90504 32274 ft 396 kts 311°
2026-02-21 06:52 32.62295 44.86159 32275 ft 396 kts 311°
2026-02-21 06:53 32.66404 44.81859 32273 ft 397 kts 311°
2026-02-21 06:53 32.70568 44.77499 32275 ft 397 kts 311°
2026-02-21 06:54 32.74708 44.73157 32266 ft 396 kts 311°
2026-02-21 06:54 32.78816 44.68843 32268 ft 397 kts 311°
2026-02-21 06:55 32.82948 44.64498 32267 ft 397 kts 311°
2026-02-21 06:55 32.87095 44.60132 32262 ft 398 kts 311°
2026-02-21 06:56 32.91245 44.55757 32266 ft 399 kts 311°
2026-02-21 06:56 32.95400 44.51372 32269 ft 399 kts 311°
2026-02-21 06:57 32.99522 44.47014 32257 ft 399 kts 311°
2026-02-21 06:57 33.03706 44.42586 32256 ft 400 kts 311°
2026-02-21 06:58 33.09937 44.35981 32263 ft 399 kts 311°
2026-02-21 06:59 33.13843 44.31834 32245 ft 398 kts 311°
2026-02-21 06:59 33.18601 44.28174 32276 ft 416 kts 328°
2026-02-21 07:00 33.24221 44.26064 32252 ft 427 kts 335°
2026-02-21 07:00 33.29910 44.24187 32246 ft 427 kts 335°
2026-02-21 07:01 33.35684 44.22287 32251 ft 427 kts 335°
2026-02-21 07:01 33.41383 44.20404 32255 ft 428 kts 336°
2026-02-21 07:02 33.47133 44.18505 32241 ft 428 kts 336°
2026-02-21 07:02 33.52853 44.16611 32247 ft 427 kts 336°
2026-02-21 07:03 33.58596 44.14707 32255 ft 427 kts 336°
2026-02-21 07:03 33.64314 44.12810 32247 ft 426 kts 336°
2026-02-21 07:04 33.70021 44.10913 32248 ft 426 kts 336°
2026-02-21 07:04 33.75737 44.09010 32249 ft 426 kts 336°
2026-02-21 07:05 33.81455 44.07105 32244 ft 426 kts 336°
2026-02-21 07:05 33.87143 44.05206 32244 ft 426 kts 336°
2026-02-21 07:06 33.92849 44.03300 32239 ft 426 kts 336°
2026-02-21 07:06 33.98557 44.01389 32239 ft 426 kts 336°
2026-02-21 07:07 34.04285 43.99470 32241 ft 426 kts 336°
2026-02-21 07:07 34.10014 43.97547 32240 ft 426 kts 336°
2026-02-21 07:08 34.15682 43.95642 32242 ft 426 kts 336°
2026-02-21 07:08 34.21433 43.93706 32244 ft 427 kts 336°
2026-02-21 07:09 34.27154 43.91778 32242 ft 427 kts 336°
2026-02-21 07:09 34.32886 43.89843 32235 ft 428 kts 336°
2026-02-21 07:10 34.38588 43.87917 32236 ft 427 kts 336°
2026-02-21 07:10 34.44317 43.85977 32237 ft 427 kts 336°
2026-02-21 07:11 34.50047 43.84035 32238 ft 428 kts 336°
2026-02-21 07:11 34.55759 43.82096 32242 ft 428 kts 336°
2026-02-21 07:12 34.61497 43.80146 32236 ft 428 kts 336°
2026-02-21 07:12 34.67257 43.78185 32240 ft 427 kts 336°
2026-02-21 07:13 34.72984 43.76232 32239 ft 428 kts 336°
2026-02-21 07:13 34.78673 43.74291 32238 ft 427 kts 337°
2026-02-21 07:14 34.84389 43.72336 32239 ft 427 kts 337°
2026-02-21 07:14 34.90130 43.70370 32239 ft 427 kts 337°
2026-02-21 07:15 34.95853 43.68408 32241 ft 427 kts 337°
2026-02-21 07:15 35.01546 43.66453 32234 ft 427 kts 337°
2026-02-21 07:16 35.07268 43.64486 32241 ft 427 kts 337°
2026-02-21 07:16 35.12993 43.62513 32239 ft 428 kts 337°
2026-02-21 07:17 35.18752 43.60529 32240 ft 428 kts 337°
2026-02-21 07:17 35.24450 43.58560 32241 ft 428 kts 337°
2026-02-21 07:18 35.30237 43.56558 32238 ft 429 kts 337°
2026-02-21 07:18 35.35923 43.54589 32238 ft 429 kts 337°
2026-02-21 07:19 35.41668 43.52596 32236 ft 427 kts 337°
2026-02-21 07:19 35.47389 43.50608 32238 ft 427 kts 337°
2026-02-21 07:20 35.53100 43.48621 32235 ft 427 kts 337°
2026-02-21 07:20 35.58827 43.46626 32237 ft 427 kts 337°
2026-02-21 07:21 35.64547 43.44629 32235 ft 427 kts 337°
2026-02-21 07:21 35.70272 43.42628 32235 ft 428 kts 337°
2026-02-21 07:22 35.76001 43.40623 32236 ft 427 kts 337°
2026-02-21 07:22 35.81702 43.38625 32236 ft 427 kts 337°
2026-02-21 07:23 35.87392 43.36627 32229 ft 427 kts 337°
2026-02-21 07:23 35.93109 43.34617 32230 ft 427 kts 337°
2026-02-21 07:24 35.98826 43.32604 32232 ft 428 kts 337°
2026-02-21 07:24 36.04560 43.30582 32232 ft 428 kts 337°
2026-02-21 07:25 36.10233 43.28468 32236 ft 421 kts 329°
2026-02-21 07:25 36.15558 43.25536 32210 ft 421 kts 330°
2026-02-21 07:26 36.20945 43.22591 32222 ft 420 kts 329°
2026-02-21 07:26 36.26272 43.19646 32225 ft 422 kts 330°
2026-02-21 07:27 36.31457 43.16796 32230 ft 421 kts 329°
2026-02-21 07:27 36.36776 43.13854 32238 ft 421 kts 330°
2026-02-21 07:28 36.42139 43.10890 32236 ft 422 kts 330°
2026-02-21 07:28 36.47491 43.07925 32232 ft 421 kts 330°
2026-02-21 07:29 36.52830 43.04964 32231 ft 421 kts 330°
2026-02-21 07:29 36.58194 43.01984 32234 ft 421 kts 330°
2026-02-21 07:30 36.63539 42.99011 32235 ft 422 kts 330°
2026-02-21 07:30 36.68907 42.96020 32234 ft 421 kts 330°
2026-02-21 07:31 36.74257 42.93034 32231 ft 422 kts 330°
2026-02-21 07:31 36.79612 42.90051 32232 ft 422 kts 330°
2026-02-21 07:32 36.84991 42.87107 32237 ft 422 kts 330°
2026-02-21 07:32 36.85892 42.86609 32230 ft 422 kts 330°
2026-02-21 07:33 36.86771 42.86123 32230 ft 422 kts 330°
2026-02-21 07:33 37.01095 42.78199 32227 ft 422 kts 330°
2026-02-21 07:34 37.06435 42.75240 32225 ft 421 kts 330°
2026-02-21 07:34 37.11793 42.72264 32233 ft 421 kts 330°
2026-02-21 07:35 37.17150 42.69285 32234 ft 422 kts 330°
2026-02-21 07:35 37.22480 42.66215 32228 ft 417 kts 322°
2026-02-21 07:36 37.26865 42.61633 32232 ft 405 kts 304°
2026-02-21 07:36 37.30264 42.56034 32222 ft 404 kts 303°
2026-02-21 07:37 37.33649 42.50397 32220 ft 404 kts 302°
2026-02-21 07:37 37.37033 42.44742 32220 ft 405 kts 302°
2026-02-21 07:38 37.40402 42.39112 32217 ft 405 kts 302°
2026-02-21 07:38 37.43235 42.34365 32225 ft 405 kts 302°
2026-02-21 07:39 37.47166 42.27768 32230 ft 405 kts 302°
2026-02-21 07:39 37.50537 42.22099 32234 ft 405 kts 302°
2026-02-21 07:40 37.53345 42.17367 32229 ft 405 kts 302°
2026-02-21 07:40 37.56736 42.11648 32234 ft 405 kts 302°
2026-02-21 07:41 37.60083 42.05991 32238 ft 405 kts 302°
2026-02-21 07:41 37.63453 42.00285 32242 ft 406 kts 302°
2026-02-21 07:42 37.66824 41.94571 32233 ft 405 kts 302°
2026-02-21 07:42 37.70186 41.88857 32238 ft 406 kts 302°
2026-02-21 07:43 37.73556 41.83124 32244 ft 406 kts 302°
2026-02-21 07:43 37.75800 41.79299 32249 ft 405 kts 302°
2026-02-21 07:44 37.76346 41.78368 32245 ft 405 kts 302°
2026-02-21 07:44 37.83625 41.65941 32253 ft 406 kts 302°
2026-02-21 07:45 37.86984 41.60191 32246 ft 406 kts 302°
2026-02-21 07:45 37.90338 41.54440 32257 ft 407 kts 301°
2026-02-21 07:46 37.93706 41.48655 32261 ft 407 kts 302°
2026-02-21 07:46 37.97069 41.42867 32264 ft 407 kts 301°
2026-02-21 07:47 38.00397 41.37131 32266 ft 407 kts 301°
2026-02-21 07:47 38.03751 41.31339 32270 ft 406 kts 301°
2026-02-21 07:48 38.07112 41.25524 32267 ft 407 kts 301°
2026-02-21 07:48 38.10467 41.19711 32272 ft 407 kts 301°
2026-02-21 07:49 38.13755 41.13915 32272 ft 405 kts 295°
2026-02-21 07:49 38.16018 41.07455 32264 ft 401 kts 288°
2026-02-21 07:50 38.18085 41.00883 32269 ft 401 kts 288°
2026-02-21 07:50 38.20124 40.94307 32270 ft 401 kts 288°
2026-02-21 07:51 38.22182 40.87694 32268 ft 401 kts 287°
2026-02-21 07:51 38.24221 40.81106 32268 ft 400 kts 287°
2026-02-21 07:52 38.26207 40.74492 32270 ft 400 kts 287°
2026-02-21 07:52 38.28181 40.67915 32269 ft 401 kts 287°
2026-02-21 07:53 38.30173 40.61271 32267 ft 401 kts 287°
2026-02-21 07:53 38.32146 40.54660 32272 ft 401 kts 287°
2026-02-21 07:54 38.34134 40.47992 32270 ft 401 kts 287°
2026-02-21 07:54 38.36102 40.41370 32272 ft 401 kts 286°
2026-02-21 07:55 38.38064 40.34753 32271 ft 401 kts 286°
2026-02-21 07:55 38.40047 40.28052 32275 ft 402 kts 286°
2026-02-21 07:56 38.42004 40.21421 32276 ft 402 kts 286°
2026-02-21 07:56 38.43965 40.14759 32277 ft 401 kts 286°
2026-02-21 07:57 38.45925 40.08084 32278 ft 402 kts 286°
2026-02-21 07:57 38.47883 40.01400 32281 ft 401 kts 286°
2026-02-21 07:58 38.49832 39.94727 32275 ft 401 kts 286°
2026-02-21 07:58 38.51781 39.88042 32292 ft 402 kts 286°
2026-02-21 07:59 38.53727 39.81351 32284 ft 402 kts 285°
2026-02-21 07:59 38.55662 39.74677 32286 ft 401 kts 285°
2026-02-21 08:00 38.57595 39.67997 32292 ft 400 kts 285°
2026-02-21 08:00 38.59520 39.61325 32297 ft 400 kts 285°
2026-02-21 08:01 38.61443 39.54642 32296 ft 401 kts 285°
2026-02-21 08:01 38.63371 39.47963 32297 ft 400 kts 285°
2026-02-21 08:02 38.65338 39.41289 32297 ft 400 kts 285°
2026-02-21 08:02 38.67275 39.34626 32301 ft 400 kts 285°
2026-02-21 08:03 38.70195 39.24595 32301 ft 401 kts 285°
2026-02-21 08:03 38.71518 39.17794 32296 ft 396 kts 277°
2026-02-21 08:04 38.72555 39.10873 32305 ft 395 kts 276°
2026-02-21 08:04 38.73587 39.03926 32305 ft 395 kts 276°
2026-02-21 08:05 38.74603 38.97065 32306 ft 395 kts 276°
2026-02-21 08:05 38.75626 38.90122 32295 ft 396 kts 276°
2026-02-21 08:06 38.76673 38.83199 32292 ft 396 kts 276°
2026-02-21 08:06 38.77713 38.76300 32303 ft 395 kts 276°
2026-02-21 08:07 38.78748 38.69386 32308 ft 395 kts 276°
2026-02-21 08:07 38.79786 38.62433 32308 ft 396 kts 276°
2026-02-21 08:08 38.80814 38.55511 32303 ft 396 kts 276°
2026-02-21 08:08 38.81841 38.48577 32302 ft 396 kts 276°
2026-02-21 08:09 38.82865 38.41628 32298 ft 396 kts 276°
2026-02-21 08:09 38.83881 38.34700 32292 ft 396 kts 276°
2026-02-21 08:10 38.84893 38.27774 32287 ft 395 kts 276°
2026-02-21 08:10 38.85895 38.20883 32281 ft 395 kts 276°
2026-02-21 08:11 38.86065 38.19712 32283 ft 395 kts 276°
2026-02-21 08:12 38.88892 38.00098 32251 ft 394 kts 275°
2026-02-21 08:12 38.89881 37.93180 32249 ft 393 kts 275°
2026-02-21 08:13 38.90864 37.86268 32247 ft 394 kts 275°
2026-02-21 08:13 38.91847 37.79334 32240 ft 394 kts 275°
2026-02-21 08:14 38.92822 37.72419 32246 ft 394 kts 275°
2026-02-21 08:14 38.93786 37.65553 32247 ft 393 kts 275°
2026-02-21 08:15 38.94721 37.58859 32248 ft 393 kts 275°
2026-02-21 08:15 38.95680 37.51974 32251 ft 393 kts 275°
2026-02-21 08:16 38.96634 37.45090 32246 ft 393 kts 274°
2026-02-21 08:16 38.97591 37.38148 32245 ft 392 kts 274°
2026-02-21 08:17 38.98537 37.31254 32232 ft 393 kts 274°
2026-02-21 08:17 38.99483 37.24335 32224 ft 392 kts 274°
2026-02-21 08:18 39.00422 37.17431 32225 ft 392 kts 274°
2026-02-21 08:18 39.01360 37.10508 32217 ft 393 kts 274°
2026-02-21 08:19 39.02293 37.03585 32213 ft 393 kts 274°
2026-02-21 08:19 39.03221 36.96666 32203 ft 393 kts 274°
2026-02-21 08:20 39.04145 36.89749 32200 ft 392 kts 274°
2026-02-21 08:20 39.05060 36.82864 32199 ft 392 kts 274°
2026-02-21 08:21 39.05973 36.75966 32192 ft 392 kts 274°
2026-02-21 08:21 39.06884 36.69045 32186 ft 392 kts 273°
2026-02-21 08:22 39.07789 36.62139 32180 ft 391 kts 273°
2026-02-21 08:22 39.08542 36.56362 32177 ft 391 kts 273°
2026-02-21 08:24 39.11811 36.31043 32174 ft 391 kts 273°
2026-02-21 08:25 39.12692 36.24136 32167 ft 392 kts 272°
2026-02-21 08:25 39.13565 36.17265 32166 ft 391 kts 272°
2026-02-21 08:26 39.14437 36.10359 32172 ft 392 kts 272°
2026-02-21 08:26 39.15456 36.03435 32180 ft 398 kts 280°
2026-02-21 08:27 39.17741 35.96813 32164 ft 408 kts 288°
2026-02-21 08:27 39.20288 35.90265 32171 ft 408 kts 288°
2026-02-21 08:28 39.21555 35.87010 32161 ft 408 kts 288°
2026-02-21 08:30 39.32538 35.58620 32132 ft 408 kts 288°
2026-02-21 08:30 39.35062 35.52058 32127 ft 407 kts 288°
2026-02-21 08:31 39.37565 35.45533 32124 ft 408 kts 288°
2026-02-21 08:31 39.40078 35.38972 32129 ft 409 kts 287°
2026-02-21 08:32 39.42604 35.32364 32131 ft 408 kts 287°
2026-02-21 08:32 39.46357 35.22511 32140 ft 408 kts 287°
2026-02-21 08:33 39.47190 35.20323 32141 ft 408 kts 287°
2026-02-21 08:35 39.58859 34.89468 32151 ft 409 kts 287°
2026-02-21 08:35 39.61350 34.82840 32135 ft 409 kts 287°
2026-02-21 08:36 39.63823 34.76243 32136 ft 408 kts 287°
2026-02-21 08:36 39.66306 34.69605 32140 ft 409 kts 287°
2026-02-21 08:37 39.68768 34.63013 32131 ft 408 kts 286°
2026-02-21 08:37 39.71261 34.56318 32136 ft 409 kts 286°
2026-02-21 08:38 39.73733 34.49668 32134 ft 409 kts 286°
2026-02-21 08:38 39.76206 34.42997 32124 ft 410 kts 286°
2026-02-21 08:39 39.78665 34.36352 32127 ft 410 kts 286°
2026-02-21 08:39 39.81148 34.29624 32125 ft 411 kts 286°
2026-02-21 08:40 39.83606 34.22949 32130 ft 411 kts 286°
2026-02-21 08:40 39.86074 34.16233 32132 ft 412 kts 286°
2026-02-21 08:41 39.88541 34.09503 32135 ft 412 kts 286°
2026-02-21 08:41 39.91001 34.02777 32137 ft 412 kts 286°
2026-02-21 08:42 39.93469 33.96014 32139 ft 412 kts 286°
2026-02-21 08:42 39.95929 33.89258 32127 ft 413 kts 285°
2026-02-21 08:43 39.98390 33.82481 32143 ft 413 kts 285°
2026-02-21 08:43 40.00843 33.75712 32138 ft 413 kts 285°
2026-02-21 08:44 40.03285 33.68958 32136 ft 414 kts 285°
2026-02-21 08:46 40.11802 33.45279 32129 ft 416 kts 285°
2026-02-21 08:46 40.14253 33.38427 32111 ft 416 kts 285°
2026-02-21 08:47 40.16700 33.31571 32118 ft 416 kts 285°
2026-02-21 08:47 40.19142 33.24713 32116 ft 416 kts 285°
2026-02-21 08:48 40.21581 33.17846 32113 ft 416 kts 285°
2026-02-21 08:48 40.24057 33.10944 32110 ft 421 kts 290°
2026-02-21 08:49 40.27359 33.04454 32114 ft 431 kts 295°
2026-02-21 08:49 40.30749 32.97977 32107 ft 431 kts 295°
2026-02-21 08:50 40.34132 32.91508 32112 ft 432 kts 295°
2026-02-21 08:50 40.37514 32.85024 32107 ft 432 kts 295°
2026-02-21 08:51 40.40923 32.78477 32100 ft 432 kts 294°
2026-02-21 08:51 40.44297 32.71980 32099 ft 434 kts 294°
2026-02-21 08:52 40.47711 32.65396 32081 ft 434 kts 294°
2026-02-21 08:52 40.51090 32.58866 32087 ft 435 kts 295°
2026-02-21 08:53 40.54487 32.52285 32091 ft 435 kts 294°
2026-02-21 08:53 40.57877 32.45703 32090 ft 435 kts 294°
2026-02-21 08:54 40.61265 32.39115 32089 ft 435 kts 294°
2026-02-21 08:54 40.64651 32.32515 32090 ft 435 kts 294°
2026-02-21 08:55 40.68034 32.25906 32083 ft 434 kts 294°
2026-02-21 08:55 40.69720 32.22605 32079 ft 435 kts 294°
2026-02-21 08:57 40.82978 31.95998 32067 ft 435 kts 294°
2026-02-21 08:57 40.86292 31.89303 32064 ft 435 kts 294°
2026-02-21 08:58 40.89604 31.82581 32065 ft 437 kts 294°
2026-02-21 08:58 40.92925 31.75837 32063 ft 437 kts 294°
2026-02-21 08:59 40.96235 31.69095 32065 ft 436 kts 294°
2026-02-21 08:59 40.99538 31.62352 32051 ft 438 kts 294°
2026-02-21 09:00 41.02853 31.55575 32055 ft 439 kts 294°
2026-02-21 09:00 41.06176 31.48761 32054 ft 440 kts 294°
2026-02-21 09:01 41.09477 31.41979 32051 ft 440 kts 294°
2026-02-21 09:01 41.12799 31.35141 32057 ft 439 kts 294°
2026-02-21 09:02 41.16106 31.28314 32051 ft 440 kts 294°
2026-02-21 09:02 41.19412 31.21478 32062 ft 440 kts 294°
2026-02-21 09:03 41.22696 31.14670 32068 ft 441 kts 294°
2026-02-21 09:03 41.26003 31.07801 32067 ft 441 kts 294°
2026-02-21 09:04 41.29305 31.00923 32071 ft 442 kts 294°
2026-02-21 09:04 41.32604 30.94041 32068 ft 441 kts 294°
2026-02-21 09:05 41.35905 30.87135 32070 ft 441 kts 294°
2026-02-21 09:05 41.39197 30.80234 32067 ft 441 kts 294°
2026-02-21 09:06 41.42473 30.73352 32074 ft 441 kts 294°
2026-02-21 09:06 41.45777 30.66457 32074 ft 441 kts 295°
2026-02-21 09:07 41.49086 30.59577 32078 ft 441 kts 295°
2026-02-21 09:07 41.52365 30.52714 32078 ft 441 kts 295°
2026-02-21 09:08 41.55682 30.45777 32077 ft 441 kts 295°
2026-02-21 09:08 41.58957 30.38898 32081 ft 441 kts 295°
2026-02-21 09:09 41.62247 30.31980 32080 ft 440 kts 295°
2026-02-21 09:09 41.65521 30.25074 32083 ft 440 kts 295°
2026-02-21 09:10 41.68787 30.18173 32072 ft 439 kts 295°
2026-02-21 09:10 41.72047 30.11267 32075 ft 440 kts 295°
2026-02-21 09:11 41.75316 30.04328 32078 ft 440 kts 295°
2026-02-21 09:11 41.78561 29.97422 32084 ft 441 kts 295°
2026-02-21 09:12 41.81850 29.90409 32089 ft 441 kts 296°
2026-02-21 09:12 41.85105 29.83451 32090 ft 440 kts 296°
2026-02-21 09:13 41.88354 29.76488 32091 ft 440 kts 296°
2026-02-21 09:13 41.91580 29.69562 32093 ft 440 kts 296°
2026-02-21 09:14 41.94815 29.62597 32092 ft 439 kts 296°
2026-02-21 09:14 41.98039 29.55642 32096 ft 439 kts 296°
2026-02-21 09:15 42.00728 29.49827 32094 ft 439 kts 296°
2026-02-21 09:15 42.03948 29.42849 32101 ft 439 kts 296°
2026-02-21 09:16 42.07163 29.35868 32094 ft 439 kts 297°
2026-02-21 09:16 42.10357 29.28916 32097 ft 439 kts 297°
2026-02-21 09:17 42.13557 29.21935 32103 ft 438 kts 297°
2026-02-21 09:17 42.16780 29.14886 32106 ft 438 kts 297°
2026-02-21 09:18 42.20191 29.08099 32108 ft 440 kts 300°
2026-02-21 09:18 42.23620 29.01249 32108 ft 440 kts 300°
2026-02-21 09:19 42.27060 28.94431 32112 ft 439 kts 300°
2026-02-21 09:19 42.30471 28.87615 32111 ft 439 kts 300°
2026-02-21 09:20 42.33897 28.80775 32120 ft 438 kts 300°
2026-02-21 09:20 42.37303 28.73948 32118 ft 438 kts 300°
2026-02-21 09:21 42.40709 28.67113 32130 ft 437 kts 300°
2026-02-21 09:21 42.44105 28.60278 32141 ft 437 kts 300°
2026-02-21 09:22 42.47469 28.53495 32141 ft 436 kts 301°
2026-02-21 09:22 42.50874 28.46613 32148 ft 436 kts 301°
2026-02-21 09:23 42.54233 28.39807 32122 ft 437 kts 301°
2026-02-21 09:23 42.57593 28.32983 32127 ft 436 kts 301°
2026-02-21 09:24 42.60985 28.26079 32135 ft 436 kts 301°
2026-02-21 09:24 42.64332 28.19252 32140 ft 436 kts 301°
2026-02-21 09:25 42.67688 28.12392 32150 ft 437 kts 300°
2026-02-21 09:25 42.71049 28.05502 32160 ft 437 kts 300°
2026-02-21 09:27 42.82792 27.81311 32183 ft 437 kts 301°
2026-02-21 09:28 42.86131 27.74395 32195 ft 438 kts 301°
2026-02-21 09:28 42.89479 27.67446 32199 ft 438 kts 301°
2026-02-21 09:29 42.92823 27.60488 32208 ft 438 kts 301°
2026-02-21 09:29 42.96142 27.53566 32215 ft 438 kts 301°
2026-02-21 09:30 42.99487 27.46575 32221 ft 438 kts 301°
2026-02-21 09:30 43.02689 27.39865 32227 ft 438 kts 301°
2026-02-21 09:31 43.06029 27.32851 32233 ft 439 kts 301°
2026-02-21 09:31 43.09353 27.25854 32233 ft 438 kts 301°
2026-02-21 09:32 43.12670 27.18855 32235 ft 437 kts 301°
2026-02-21 09:32 43.15974 27.11868 32240 ft 438 kts 301°
2026-02-21 09:33 43.19278 27.04862 32248 ft 438 kts 301°
2026-02-21 09:33 43.22560 26.97887 32253 ft 438 kts 301°
2026-02-21 09:34 43.25867 26.90842 32254 ft 439 kts 301°
2026-02-21 09:34 43.29167 26.83797 32262 ft 439 kts 300°
2026-02-21 09:35 43.32464 26.76738 32272 ft 440 kts 300°
2026-02-21 09:35 43.35769 26.69647 32281 ft 441 kts 300°
2026-02-21 09:36 43.39082 26.62522 32285 ft 441 kts 300°
2026-02-21 09:36 43.42381 26.55411 32294 ft 441 kts 300°
2026-02-21 09:37 43.45681 26.48279 32300 ft 441 kts 300°
2026-02-21 09:37 43.48969 26.41155 32308 ft 442 kts 300°
2026-02-21 09:38 43.52245 26.34040 32306 ft 441 kts 300°
2026-02-21 09:38 43.55523 26.26903 32311 ft 441 kts 300°
2026-02-21 09:39 43.58790 26.19774 32315 ft 441 kts 300°
2026-02-21 09:39 43.62070 26.12597 32323 ft 441 kts 300°
2026-02-21 09:40 43.65326 26.05457 32327 ft 441 kts 300°
2026-02-21 09:40 43.68601 25.98255 32332 ft 441 kts 300°
2026-02-21 09:41 43.71863 25.91067 32332 ft 441 kts 300°
2026-02-21 09:41 43.75115 25.83882 32329 ft 441 kts 300°
2026-02-21 09:42 43.78373 25.76666 32337 ft 442 kts 300°
2026-02-21 09:42 43.81616 25.69466 32338 ft 443 kts 300°
2026-02-21 09:43 43.84874 25.62212 32331 ft 444 kts 300°
2026-02-21 09:43 43.88119 25.54972 32332 ft 442 kts 300°
2026-02-21 09:44 43.91370 25.47698 32331 ft 443 kts 300°
2026-02-21 09:44 43.94605 25.40443 32332 ft 442 kts 300°
2026-02-21 09:45 43.97849 25.33178 32333 ft 442 kts 302°
2026-02-21 09:46 44.10295 25.08733 32336 ft 444 kts 303°
2026-02-21 09:47 44.13874 25.01680 32322 ft 444 kts 303°
2026-02-21 09:47 44.17394 24.94713 32332 ft 443 kts 303°
2026-02-21 09:48 44.20946 24.87669 32327 ft 444 kts 303°
2026-02-21 09:48 44.24493 24.80618 32328 ft 444 kts 303°
2026-02-21 09:49 44.28028 24.73572 32326 ft 444 kts 303°
2026-02-21 09:49 44.31571 24.66496 32329 ft 444 kts 302°
2026-02-21 09:50 44.35108 24.59413 32330 ft 444 kts 302°
2026-02-21 09:50 44.38632 24.52338 32326 ft 443 kts 302°
2026-02-21 09:51 44.42152 24.45256 32322 ft 444 kts 302°
2026-02-21 09:51 44.45654 24.38191 32328 ft 444 kts 302°
2026-02-21 09:52 44.49149 24.31124 32323 ft 443 kts 302°
2026-02-21 09:52 44.52661 24.24004 32326 ft 443 kts 302°
2026-02-21 09:53 44.56162 24.16889 32325 ft 444 kts 302°
2026-02-21 09:53 44.59670 24.09743 32322 ft 444 kts 302°
2026-02-21 09:54 44.63164 24.02608 32317 ft 444 kts 302°
2026-02-21 09:54 44.66660 23.95449 32311 ft 444 kts 302°
2026-02-21 09:55 44.70133 23.88322 32306 ft 444 kts 302°
2026-02-21 09:55 44.73617 23.81153 32305 ft 444 kts 302°
2026-02-21 09:56 44.77116 23.73936 32304 ft 444 kts 302°
2026-02-21 09:56 44.80592 23.66748 32300 ft 444 kts 302°
2026-02-21 09:57 44.84040 23.59600 32291 ft 444 kts 302°
2026-02-21 09:57 44.87505 23.52402 32285 ft 441 kts 302°
2026-02-21 09:58 44.90934 23.45256 32283 ft 442 kts 302°
2026-02-21 09:58 44.94382 23.38056 32292 ft 442 kts 302°
2026-02-21 09:59 44.97825 23.30847 32292 ft 442 kts 302°
2026-02-21 09:59 45.01265 23.23625 32295 ft 444 kts 302°
2026-02-21 10:00 45.04716 23.16362 32297 ft 445 kts 302°
2026-02-21 10:00 45.08159 23.09099 32297 ft 444 kts 302°
2026-02-21 10:01 45.11576 23.01871 32303 ft 445 kts 302°
2026-02-21 10:01 45.15040 22.94526 32301 ft 445 kts 302°
2026-02-21 10:02 45.16734 22.90926 32168 ft 445 kts 302°
2026-02-21 10:02 45.18458 22.87262 32268 ft 446 kts 302°
2026-02-21 10:02 45.21896 22.79930 32271 ft 446 kts 302°
2026-02-21 10:03 45.25321 22.72614 32274 ft 446 kts 302°
2026-02-21 10:03 45.28744 22.65277 32270 ft 445 kts 302°
2026-02-21 10:04 45.32162 22.57937 32278 ft 445 kts 302°
2026-02-21 10:04 45.35577 22.50582 32274 ft 445 kts 302°
2026-02-21 10:05 45.38394 22.44500 32272 ft 445 kts 301°
2026-02-21 10:05 45.41816 22.37095 32278 ft 444 kts 301°
2026-02-21 10:06 45.45761 22.28537 32277 ft 445 kts 301°
2026-02-21 10:06 45.48575 22.22415 32283 ft 444 kts 301°
2026-02-21 10:07 45.51946 22.15063 32286 ft 444 kts 301°
2026-02-21 10:07 45.55334 22.07657 32292 ft 445 kts 301°
2026-02-21 10:08 45.58725 22.00221 32293 ft 445 kts 301°
2026-02-21 10:08 45.62097 21.92810 32294 ft 445 kts 301°
2026-02-21 10:09 45.65450 21.85422 32300 ft 445 kts 300°
2026-02-21 10:09 45.68817 21.77982 32299 ft 444 kts 300°
2026-02-21 10:10 45.72147 21.70607 32298 ft 443 kts 300°
2026-02-21 10:10 45.75501 21.63155 32294 ft 443 kts 300°
2026-02-21 10:11 45.77152 21.59483 32298 ft 442 kts 300°
2026-02-21 10:12 45.85452 21.40937 32305 ft 442 kts 300°
2026-02-21 10:12 45.88754 21.33525 32296 ft 440 kts 300°
2026-02-21 10:13 45.92045 21.26118 32297 ft 439 kts 300°
2026-02-21 10:13 45.95317 21.18735 32297 ft 438 kts 301°
2026-02-21 10:14 45.98578 21.11358 32297 ft 436 kts 301°
2026-02-21 10:14 46.01816 21.04012 32289 ft 436 kts 301°
2026-02-21 10:15 46.05052 20.96652 32290 ft 437 kts 301°
2026-02-21 10:15 46.08306 20.89232 32289 ft 438 kts 301°
2026-02-21 10:16 46.11548 20.81820 32295 ft 438 kts 302°
2026-02-21 10:16 46.14788 20.74390 32292 ft 437 kts 302°
2026-02-21 10:17 46.17784 20.66844 32283 ft 437 kts 297°
2026-02-21 10:17 46.20684 20.59055 32279 ft 437 kts 298°
2026-02-21 10:18 46.23505 20.51313 32296 ft 437 kts 298°
2026-02-21 10:18 46.26344 20.43566 32297 ft 437 kts 298°
2026-02-21 10:19 46.29176 20.35789 32291 ft 437 kts 298°
2026-02-21 10:19 46.32005 20.28005 32292 ft 437 kts 298°
2026-02-21 10:20 46.34831 20.20207 32288 ft 437 kts 298°
2026-02-21 10:20 46.37640 20.12432 32287 ft 437 kts 298°
2026-02-21 10:21 46.40456 20.04617 32289 ft 437 kts 297°
2026-02-21 10:21 46.43262 19.96804 32288 ft 437 kts 298°
2026-02-21 10:22 46.46071 19.88964 32285 ft 438 kts 297°
2026-02-21 10:22 46.48872 19.81120 32283 ft 438 kts 297°
2026-02-21 10:23 46.51657 19.73298 32282 ft 438 kts 297°
2026-02-21 10:23 46.54449 19.65435 32287 ft 439 kts 297°
2026-02-21 10:24 46.57247 19.57530 32282 ft 439 kts 297°
2026-02-21 10:24 46.60031 19.49641 32283 ft 439 kts 297°
2026-02-21 10:25 46.62818 19.41719 32283 ft 440 kts 297°
2026-02-21 10:25 46.65599 19.33793 32285 ft 440 kts 297°
2026-02-21 10:26 46.68379 19.25843 32284 ft 440 kts 297°
2026-02-21 10:26 46.71139 19.17929 32287 ft 440 kts 297°
2026-02-21 10:27 46.73891 19.10013 32284 ft 439 kts 296°
2026-02-21 10:27 46.76664 19.02012 32279 ft 439 kts 296°
2026-02-21 10:28 46.79407 18.94074 32278 ft 438 kts 296°
2026-02-21 10:28 46.82122 18.86195 32276 ft 437 kts 296°
2026-02-21 10:29 46.84848 18.78259 32280 ft 437 kts 296°
2026-02-21 10:29 46.87563 18.70330 32274 ft 436 kts 296°
2026-02-21 10:30 46.88005 18.69039 32276 ft 436 kts 296°
2026-02-21 10:31 46.95588 18.46756 32276 ft 435 kts 295°
2026-02-21 10:31 46.98270 18.38828 32271 ft 435 kts 295°
2026-02-21 10:32 47.00952 18.30878 32271 ft 435 kts 295°
2026-02-21 10:32 47.03610 18.22975 32271 ft 434 kts 295°
2026-02-21 10:33 47.06364 18.15098 32284 ft 434 kts 298°
2026-02-21 10:33 47.09204 18.07295 32288 ft 433 kts 296°
2026-02-21 10:34 47.12101 17.99483 32291 ft 434 kts 297°
2026-02-21 10:34 47.14943 17.91737 32294 ft 433 kts 296°
2026-02-21 10:35 47.17803 17.83931 32306 ft 434 kts 296°
2026-02-21 10:35 47.20649 17.76149 32315 ft 433 kts 296°
2026-02-21 10:36 47.23495 17.68329 32327 ft 434 kts 296°
2026-02-21 10:36 47.26346 17.60484 32300 ft 434 kts 296°
2026-02-21 10:37 47.29179 17.52661 32301 ft 433 kts 296°
2026-02-21 10:37 47.32015 17.44808 32300 ft 433 kts 296°
2026-02-21 10:38 47.34833 17.36978 32304 ft 433 kts 296°
2026-02-21 10:38 47.37650 17.29131 32306 ft 433 kts 295°
2026-02-21 10:39 47.40461 17.21276 32304 ft 433 kts 295°
2026-02-21 10:39 47.43248 17.13469 32301 ft 433 kts 295°
2026-02-21 10:40 47.46048 17.05595 32298 ft 433 kts 295°
2026-02-21 10:40 47.46518 17.04273 32296 ft 433 kts 295°
2026-02-21 10:41 47.54444 16.81856 32273 ft 434 kts 295°
2026-02-21 10:42 47.57315 16.74002 32288 ft 436 kts 302°
2026-02-21 10:42 47.60659 16.66475 32261 ft 437 kts 300°
2026-02-21 10:43 47.63974 16.58923 32262 ft 437 kts 301°
2026-02-21 10:43 47.67293 16.51378 32261 ft 436 kts 300°
2026-02-21 10:44 47.70574 16.43877 32260 ft 436 kts 300°
2026-02-21 10:44 47.73903 16.36257 32256 ft 436 kts 300°
2026-02-21 10:45 47.77169 16.28754 32250 ft 435 kts 300°
2026-02-21 10:45 47.80474 16.21144 32237 ft 435 kts 300°
2026-02-21 10:46 47.83742 16.13597 32237 ft 435 kts 300°
2026-02-21 10:46 47.87000 16.06052 32236 ft 435 kts 300°
2026-02-21 10:47 47.90274 15.98448 32237 ft 435 kts 300°
2026-02-21 10:47 47.93528 15.90872 32232 ft 434 kts 300°
2026-02-21 10:48 47.96635 15.83616 32231 ft 434 kts 300°
2026-02-21 10:48 47.99875 15.76030 32233 ft 434 kts 300°
2026-02-21 10:49 48.03121 15.68408 32234 ft 434 kts 300°
2026-02-21 10:49 48.05702 15.60376 32221 ft 431 kts 289°
2026-02-21 10:50 48.07902 15.52124 32237 ft 431 kts 290°
2026-02-21 10:50 48.10072 15.43774 32253 ft 430 kts 290°
2026-02-21 10:51 48.12250 15.35456 32245 ft 430 kts 290°
2026-02-21 10:51 48.14415 15.27108 32249 ft 429 kts 290°
2026-02-21 10:52 48.16574 15.18778 32247 ft 429 kts 290°
2026-02-21 10:52 48.18722 15.10453 32244 ft 429 kts 290°
2026-02-21 10:53 48.20868 15.02107 32241 ft 429 kts 290°
2026-02-21 10:53 48.22990 14.93821 32244 ft 428 kts 290°
2026-02-21 10:54 48.24770 14.86850 32246 ft 428 kts 290°
2026-02-21 10:54 48.26895 14.78496 32248 ft 427 kts 290°
2026-02-21 10:55 48.29345 14.68829 32261 ft 426 kts 290°
2026-02-21 10:55 48.31104 14.61863 32263 ft 426 kts 290°
2026-02-21 10:56 48.33183 14.53603 32265 ft 425 kts 291°
2026-02-21 10:56 48.35264 14.45300 32268 ft 424 kts 291°
2026-02-21 10:57 48.37327 14.37040 32269 ft 424 kts 291°
2026-02-21 10:57 48.39401 14.28709 32265 ft 423 kts 291°
2026-02-21 10:58 48.41460 14.20406 32262 ft 423 kts 291°
2026-02-21 10:58 48.43510 14.12107 32263 ft 422 kts 291°
2026-02-21 10:59 48.45533 14.03885 32259 ft 421 kts 291°
2026-02-21 10:59 48.47562 13.95611 32254 ft 420 kts 291°
2026-02-21 11:00 48.49574 13.87376 32248 ft 420 kts 291°
2026-02-21 11:00 48.51586 13.79112 32250 ft 420 kts 291°
2026-02-21 11:01 48.53590 13.70847 32253 ft 419 kts 292°
2026-02-21 11:01 48.55587 13.62581 32254 ft 419 kts 292°
2026-02-21 11:02 48.57568 13.54342 32256 ft 419 kts 292°
2026-02-21 11:02 48.59917 13.46251 32261 ft 418 kts 298°
2026-02-21 11:03 48.62465 13.38380 32268 ft 416 kts 298°
2026-02-21 11:03 48.64620 13.31837 32263 ft 415 kts 298°
2026-02-21 11:04 48.65042 13.30554 32269 ft 415 kts 298°
2026-02-21 11:04 48.70134 13.14915 32262 ft 413 kts 298°
2026-02-21 11:05 48.72658 13.07128 32265 ft 412 kts 299°
2026-02-21 11:05 48.75173 12.99351 32267 ft 411 kts 299°
2026-02-21 11:06 48.77667 12.91610 32262 ft 409 kts 299°
2026-02-21 11:06 48.80151 12.83879 32260 ft 407 kts 299°
2026-02-21 11:07 48.82612 12.76199 32263 ft 405 kts 300°
2026-02-21 11:07 48.85064 12.68521 32258 ft 403 kts 300°
2026-02-21 11:08 48.87503 12.60860 32255 ft 402 kts 300°
2026-02-21 11:08 48.89936 12.53193 32247 ft 402 kts 300°
2026-02-21 11:09 48.92359 12.45539 32251 ft 402 kts 300°
2026-02-21 11:09 48.94779 12.37867 32253 ft 402 kts 300°
2026-02-21 11:10 48.97173 12.30251 32255 ft 401 kts 301°
2026-02-21 11:10 48.99571 12.22605 32247 ft 399 kts 301°
2026-02-21 11:11 49.01945 12.15008 32238 ft 398 kts 301°
2026-02-21 11:11 49.04324 12.07374 32226 ft 397 kts 301°
2026-02-21 11:12 49.06686 11.99774 32225 ft 396 kts 301°
2026-02-21 11:12 49.09042 11.92164 32220 ft 395 kts 302°
2026-02-21 11:13 49.11382 11.84586 32216 ft 395 kts 302°
2026-02-21 11:14 49.14870 11.73247 32205 ft 393 kts 302°
2026-02-21 11:14 49.17194 11.65662 32207 ft 391 kts 302°
2026-02-21 11:15 49.19477 11.58188 32213 ft 391 kts 302°
2026-02-21 11:15 49.21395 11.51892 32215 ft 390 kts 302°
2026-02-21 11:16 49.26314 11.35669 32219 ft 388 kts 303°
2026-02-21 11:17 49.28585 11.28146 32211 ft 388 kts 303°
2026-02-21 11:17 49.30836 11.20659 32208 ft 387 kts 303°
2026-02-21 11:18 49.32991 11.13477 32211 ft 386 kts 303°
2026-02-21 11:18 49.35217 11.06032 32205 ft 384 kts 303°
2026-02-21 11:19 49.37432 10.98602 32203 ft 382 kts 303°
2026-02-21 11:19 49.39697 10.91275 32211 ft 378 kts 305°
2026-02-21 11:20 49.42037 10.84072 32211 ft 379 kts 304°
2026-02-21 11:20 49.44386 10.76829 32220 ft 378 kts 304°
2026-02-21 11:21 49.46722 10.69612 32216 ft 378 kts 304°
2026-02-21 11:21 49.49063 10.62348 32224 ft 377 kts 304°
2026-02-21 11:22 49.51385 10.55128 32218 ft 377 kts 304°
2026-02-21 11:22 49.53698 10.47912 32222 ft 376 kts 304°
2026-02-21 11:23 49.56008 10.40689 32224 ft 375 kts 304°
2026-02-21 11:23 49.58307 10.33477 32216 ft 374 kts 303°
2026-02-21 11:24 49.60587 10.26306 32212 ft 374 kts 303°
2026-02-21 11:24 49.62875 10.19085 32208 ft 373 kts 303°
2026-02-21 11:25 49.64395 10.14279 32206 ft 373 kts 303°
2026-02-21 11:26 49.69662 9.97550 32199 ft 372 kts 303°
2026-02-21 11:26 49.71912 9.90364 32189 ft 371 kts 303°
2026-02-21 11:27 49.74162 9.83164 32205 ft 371 kts 303°
2026-02-21 11:27 49.76392 9.76002 32198 ft 370 kts 302°
2026-02-21 11:28 49.78628 9.68806 32191 ft 370 kts 302°
2026-02-21 11:28 49.80858 9.61603 32187 ft 370 kts 302°
2026-02-21 11:29 49.83077 9.54419 32179 ft 370 kts 302°
2026-02-21 11:29 49.85283 9.47252 32182 ft 370 kts 302°
2026-02-21 11:30 49.87491 9.40059 32179 ft 370 kts 302°
2026-02-21 11:30 49.89698 9.32849 32186 ft 369 kts 302°
2026-02-21 11:31 49.91908 9.25607 32186 ft 369 kts 302°
2026-02-21 11:31 49.94092 9.18430 32195 ft 369 kts 302°
2026-02-21 11:32 49.96273 9.11231 32212 ft 367 kts 303°
2026-02-21 11:32 49.98397 9.04202 32207 ft 352 kts 304°
2026-02-21 11:33 50.00442 8.97432 32206 ft 340 kts 304°
2026-02-21 11:33 50.02435 8.90819 32218 ft 339 kts 304°
2026-02-21 11:34 50.04448 8.84112 32217 ft 345 kts 303°
2026-02-21 11:34 50.06330 8.77199 32235 ft 350 kts 299°
2026-02-21 11:35 50.08027 8.70098 32236 ft 350 kts 300°
2026-02-21 11:35 50.09706 8.62981 32233 ft 351 kts 299°
2026-02-21 11:36 50.11387 8.55847 32233 ft 352 kts 299°
2026-02-21 11:36 50.13068 8.48688 32245 ft 352 kts 299°
2026-02-21 11:37 50.14759 8.41460 32238 ft 354 kts 298°
2026-02-21 11:37 50.16440 8.34247 32223 ft 354 kts 298°
2026-02-21 11:38 50.18124 8.27010 32221 ft 355 kts 298°
2026-02-21 11:38 50.19805 8.19749 32222 ft 356 kts 298°